Location: Newark
(40.7119°N, 74.0097°W)
Time: 22:22:18
(UTC+00:00)

X-37B - Visible Passes

Search period start: 19 June 2021 00:00
Search period end: 29 June 2021 00:00
Orbit: 386 x 389 km, 45.0° (Epoch: 10 June)

Date Brightness Start Highest point End Pass type
(mag) Time Alt. Az. Time Alt. Az. Time Alt. Az.
19 Jun 2.5 06:01:26 30° NNE 06:01:26 30° NNE 06:03:33 10° ENE visible
19 Jun 1.7 07:34:30 10° WNW 07:37:33 44° NNE 07:40:37 10° E visible
20 Jun 2.1 06:37:55 26° NW 06:39:04 37° N 06:42:04 10° ENE visible
20 Jun 0.5 08:12:44 10° WNW 08:15:55 86° SSW 08:19:05 10° ESE visible
21 Jun 3.2 05:42:30 18° ENE 05:42:30 18° ENE 05:43:33 10° ENE visible
21 Jun 1.0 07:14:49 13° WNW 07:17:32 61° NNE 07:20:41 10° E visible
21 Jun 1.6 08:51:17 10° W 08:54:01 27° SW 08:56:45 10° SSE visible
22 Jun 2.5 01:27:23 10° S 01:28:32 13° SSE 01:28:32 13° SSE visible
22 Jun 2.3 06:20:14 30° ENE 06:20:14 30° ENE 06:22:09 10° E visible
22 Jun 0.7 07:52:42 10° WNW 07:55:46 48° SSW 07:58:50 10° SE visible
23 Jun 0.8 02:03:55 10° SW 02:06:57 44° SSE 02:08:47 20° E visible
23 Jun 3.2 03:40:32 10° W 03:41:14 15° W 03:41:14 15° W visible
23 Jun 2.7 06:59:41 18° ESE 06:59:41 18° ESE 07:00:38 10° ESE visible
23 Jun 2.3 08:32:13 11° WSW 08:33:43 15° SW 08:35:35 10° S visible
24 Jun 1.7 01:06:04 10° SSW 01:08:43 24° SE 01:11:23 10° E visible
24 Jun 0.9 02:42:01 10° WSW 02:45:11 65° NNW 02:47:13 20° ENE visible
24 Jun 3.5 04:19:09 10° WNW 04:19:34 13° WNW 04:19:34 13° WNW visible
25 Jun 0.5 01:43:37 10° WSW 01:46:48 79° SSE 01:49:59 10° ENE visible
25 Jun 2.0 03:20:37 10° WNW 03:23:37 38° N 03:24:24 32° NNE visible
26 Jun 1.7 02:22:04 10° W 02:25:09 46° NNW 02:28:14 10° ENE visible
26 Jun 2.7 03:59:09 10° WNW 04:01:00 27° NW 04:01:00 27° NW visible
27 Jun 1.0 01:23:33 10° WSW 01:26:42 65° NNW 01:29:52 10° ENE visible
27 Jun 2.2 03:00:40 10° WNW 03:03:39 35° N 03:05:06 23° NE visible
28 Jun 2.1 02:02:09 10° WNW 02:05:09 38° N 02:08:09 10° ENE visible
28 Jun 2.2 03:39:05 10° WNW 03:41:20 35° NNW 03:41:20 35° NNW visible
